Portada
METAR-TAF:

METAR-TAF

Aeropuertos :

Aeropuerto Germán Olano

Puerto Carreño, Colombia

latitud: 06-10N, longitud: 067-30W, altitud: 55 m

Observación

El informe se hizo hace 26 minutos, a las 21:00 UTC
Viento 5 kt del oeste-suroeste
Temperatura 26°C
Humedad 94%
Presión 1007 hPa
Visibilidad 10 km o más
Cielo nuboso a una altura de 1500 ft
chaparrones en las proximidades

METAR: SKPC 172100Z 24005KT 9999 VCSH BKN015 26/25 A2975 RETS RMK VCSH/SW

Hora: 16:26 (21:26 UTC)


TAF: falta

Observaciones y pronósticos meteorológicos de más de 4000 aeropuertos (mensajes METAR y TAF).

Los puntos amarillos y rojos representan las estaciones disponibles.

Ponga el ratón en el punto deseado para ver el nombre de la estación.

Haga clic para ver las observaciones y los pronósticos meteorológicos.

Para cambiar el mapa : haga clic en los botones verdes con una cruz de color negro para hacer un zoom, en el botón verde con un guión para alejar o en las flechas verdes para mapas adyacentes.


METAR-TAF: